Location: Mascot Post Office (historical)
(40.2645°N, 99.5462°W)
Time: 06:36:45
(UTC+00:00)

CZ-2C R/B - Pass Details

Date: 14 July 2020
Orbit: 784 x 871 km, 98.3° (Epoch: 04 August)

Event Time Altitude Azimuth Distance (km) Brightness Sun altitude
Rises 02:46:16 0° 11° (N) 3,355 6.2 -7.0°
Reaches altitude 10° 02:48:38 10° 10° (N) 2,406 5.5 -7.4°
Maximum altitude 02:53:56 76° 286° (WNW) 827 2.9 -8.2°
Drops below altitude 10° 02:59:06 10° 201° (SSW) 2,346 4.8 -9.0°
Sets 03:01:24 0° 199° (SSW) 3,265 5.6 -9.3°
